Portsmouth, NH

10:36 AM EST on December 16, 2017 (GMT -0500)
Pease International Tradeport

Weather History for KPSM - February, 2011

Change the Weather History Date:

Thursday, February 10, 2011

  Actual Average Record
Temperature  
Mean Temperature 19 °F -  
Max Temperature 24 °F 33 °F 55 °F (1990)
Min Temperature 13 °F 17 °F -10 °F (1978)
Degree Days  
Heating Degree Days 46    
Moisture  
Dew Point 3 °F    
Average Humidity 47    
Maximum Humidity 60    
Minimum Humidity 34    
Precipitation  
Precipitation 0.00 in - - ()
Snow  
Snow 0.00 in - - ()
Snow Depth 19.00 in    
Sea Level Pressure  
Sea Level Pressure 29.95 in    
Wind  
Wind Speed 8 mph (West)    
Max Wind Speed 14 mph    
Max Gust Speed 22 mph    
Visibility 10 miles    
Events      
Averages and records for this station are not official NWS values.
T = Trace of Precipitation, MM = Missing Value Source: NWS Daily Summary

Daily Weather History Graph

Daily Weather History Graph

Search for Another Location

Airport or City:

Trip Planner

Search our weather history database for the weather conditions in past years. The results will help you decide how hot, cold, wet, or windy it might be!

Date:

Astronomy

Feb. 10, 2011 Rise Set
Actual Time 6:48 AM EST 5:07 PM EST
Civil Twilight 6:18 AM EST 5:37 PM EST
Nautical Twilight 5:45 AM EST 6:10 PM EST
Astronomical Twilight 5:12 AM EST 6:43 PM EST
Moon 9:45 AM EST (2/10) No Moon Set
Length of Visible Light 11h 18m
Length of Day
10h 19m
Waxing Crescent, 44% of the Moon is Illuminated
Feb 10
Waxing Crescent
Feb 11
First Quarter
Feb 18
Full
Feb 24
Last Quarter
Mar 4
New

Hourly Weather History & Observations

Time (EST) Temp. Windchill Dew Point Humidity Pressure Visibility Wind Dir Wind Speed Gust Speed Precip Events Conditions
12:55 AM 24.3 °F 15.4 °F 7.9 °F 50% 29.95 in 10.0 mi SW 8.1 mph - N/A   Overcast
1:55 AM 23.9 °F 16.8 °F 8.4 °F 52% 29.91 in 10.0 mi SW 5.8 mph - N/A   Overcast
2:55 AM 23.2 °F 17.2 °F 8.4 °F 53% 29.90 in 10.0 mi WSW 4.6 mph - N/A   Overcast
3:55 AM 22.5 °F 15.1 °F 8.4 °F 55% 29.90 in 10.0 mi SW 5.8 mph - N/A   Overcast
4:55 AM 21.2 °F 13.6 °F 7.5 °F 56% 29.90 in 10.0 mi SW 5.8 mph - N/A   Mostly Cloudy
5:55 AM 19.9 °F 12.1 °F 6.3 °F 55% 29.91 in 10.0 mi WSW 5.8 mph - N/A   Scattered Clouds
6:55 AM 18.0 °F 8.7 °F 6.1 °F 60% 29.91 in 10.0 mi West 6.9 mph - N/A   Mostly Cloudy
7:55 AM 16.7 °F 8.3 °F 5.0 °F 60% 29.91 in 10.0 mi West 5.8 mph - N/A   Scattered Clouds
8:55 AM 21.0 °F 12.4 °F 3.2 °F 46% 29.92 in 10.0 mi West 6.9 mph - N/A   Partly Cloudy
9:55 AM 23.4 °F 12.2 °F 2.1 °F 40% 29.93 in 10.0 mi NW 11.5 mph - N/A   Partly Cloudy
10:55 AM 23.4 °F 11.1 °F 2.3 °F 40% 29.93 in 10.0 mi NW 13.8 mph - N/A   Partly Cloudy
11:55 AM 23.9 °F 12.3 °F 3.6 °F 42% 29.91 in 10.0 mi NW 12.7 mph - N/A   Scattered Clouds
12:55 PM 24.6 °F 13.8 °F 1.9 °F 38% 29.90 in 10.0 mi NNW 11.5 mph 21.9 mph N/A   Scattered Clouds
1:55 PM 24.3 °F 12.7 °F -0.4 °F 34% 29.90 in 10.0 mi WNW 12.7 mph - N/A   Scattered Clouds
2:55 PM 24.4 °F 12.4 °F 2.7 °F 39% 29.91 in 10.0 mi NW 13.8 mph - N/A   Scattered Clouds
3:55 PM 23.7 °F 11.5 °F -0.4 °F 35% 29.93 in 10.0 mi WNW 13.8 mph - N/A   Partly Cloudy
4:55 PM 22.5 °F 14.1 °F -1.3 °F 36% 29.95 in 10.0 mi WNW 6.9 mph - N/A   Clear
5:55 PM 20.5 °F 11.7 °F -2.0 °F 37% 29.98 in 10.0 mi WNW 6.9 mph - N/A   Clear
6:55 PM 19.8 °F 11.9 °F -2.6 °F 37% 30.00 in 10.0 mi West 5.8 mph - N/A   Clear
7:55 PM 18.3 °F 10.2 °F -0.6 °F 44% 30.03 in 10.0 mi West 5.8 mph - N/A   Clear
8:55 PM 15.6 °F - -1.8 °F 46% 30.03 in 10.0 mi Calm Calm - N/A   Clear
9:55 PM 15.3 °F 7.9 °F -0.4 °F 50% 30.05 in 10.0 mi WSW 4.6 mph - N/A   Clear
10:55 PM 14.4 °F 5.5 °F 1.4 °F 56% 30.06 in 10.0 mi WSW 5.8 mph - N/A   Clear
11:55 PM 13.5 °F 2.2 °F 1.2 °F 58% 30.07 in 10.0 mi WSW 8.1 mph - N/A   Clear